Weather Roundup
Issued by NWS Springfield, MO

Home | Current Version | Previous Version | Text Only | Print | Product List | Glossary On
Versions: 1 2 3 4 5 6 7 8 9 10 11 12 13 14 15 16 17 18 19 20 21 22 23 24 25 26 27 28 29 30 31 32 33 34 35 36 37 38 39 40 41 42 43 44 45 46 47 48 49 50
000
NZUS99 KSGF 230707
HRRSGF

HOURLY WEATHER
NATIONAL WEATHER SERVICE SPRINGFIELD MO
200 AM CDT THU OCT 23 2014

......SGF CWA......

CITY           SKY/WX    TMP DP  RH WIND       PRES   REMARKS
SPRINGFIELD    PTCLDY    52  45  77 SE12      30.15F
JOPLIN         CLOUDY    58  51  78 S8        30.14S
WEST PLAINS    CLEAR     40  36  86 CALM      30.20F
ROLLA          CLEAR     43  38  82 SE7       30.17F
OSAGE BEACH    CLEAR     48  41  76 S6        30.18R
BRANSON        PTCLDY    50  45  81 SE6       30.18F

......SURROUNDING SGF CWA......

CITY           SKY/WX    TMP DP  RH WIND       PRES   REMARKS
CHANUTE        CLOUDY    62  58  86 S10       30.12R
PARSONS        CLOUDY    62  58  86 S5        30.14R
COFFEYVILLE    LGT RAIN  63  56  78 SW9       30.13R
EMPORIA        CLOUDY    62  61  96 S9        30.09S
GROVE OK       CLOUDY    59  54  82 CALM      30.14F
ROGERS AR      CLOUDY    55  50  83 SE3       30.17R
SILOAM SPRINGS CLOUDY    57  46  67 E5        30.16S
HARRISON AR    PTCLDY    48  47  96 SE5       30.18F
NEAR YELLVILLE   N/A     45  39  81 CALM      30.19F VSB 3/4

......KANSAS AND MISSOURI......

CITY           SKY/WX    TMP DP  RH WIND       PRES   REMARKS
KANSAS CTY INT CLOUDY    61  52  72 S12       30.09S
DOWNTOWN KC    CLOUDY    64  51  62 S8        30.09F
COLUMBIA       CLEAR     47  41  80 SE9       30.17S
SEDALIA        CLEAR     50  45  83 S9        30.16S
ST JOSEPH      RAIN      59  55  87 SW5       30.11R FOG
ST LOUIS       PTCLDY    46  39  76 SE5       30.22S
SPIRIT OF STL  FOG       37  37 100 CALM      30.21S VSB 3/4
KIRKSVILLE     PTCLDY    48  43  82 S9        30.15F
WICHITA        CLOUDY    62  56  80 S6        30.08S
TOPEKA         LGT RAIN  63  62  97 VRB3      30.09S FOG
OLATHE         CLOUDY    59  52  77 S7        30.10S

......TENNESSEE......

CITY           SKY/WX    TMP DP  RH WIND       PRES   REMARKS
MEMPHIS        CLEAR     49  42  77 CALM      30.19S
NASHVILLE      CLEAR     44  41  89 NE5       30.23R

......ARKANSAS.......

CITY           SKY/WX    TMP DP  RH WIND       PRES   REMARKS
FAYETTEVILLE   CLOUDY    50  49  96 CALM      30.16S
FT SMITH       CLOUDY    57  52  83 E7        30.15S
LITTLE ROCK    PTCLDY    51  44  77 CALM      30.18F

......OKLAHOMA.......

CITY           SKY/WX    TMP DP  RH WIND       PRES   REMARKS
TULSA          LGT RAIN  63  61  93 S3        30.11S
PONCA CITY     CLOUDY    64  61  90 S5        30.10F
MCALESTER      LGT RAIN  63  55  75 CALM      30.13S
OKLAHOMA CITY  CLOUDY    63  61  93 SE3       30.11S

......IOWA............

CITY           SKY/WX    TMP DP  RH WIND       PRES   REMARKS
DES MOINES     RAIN      56  47  71 S8        30.10F
QUAD CITIES    PTCLDY    42  35  76 SE5       30.18F

......ILLINOIS........

CITY           SKY/WX    TMP DP  RH WIND       PRES   REMARKS
QUINCY         CLEAR     46  39  76 SE6       30.18F
CHICAGO        CLEAR     38  35  89 SE5       30.24F WCI  34




USA.gov is the U.S. government's official web portal to all federal, state and local government web resources and services.